Change the Weather History Date:

Friday, August 23, 2013

  Actual Average Record
Temperature  
Mean Temperature 76 °F 74 °F  
Max Temperature 90 °F 84 °F 102 °F (1968)
Min Temperature 62 °F 65 °F 57 °F (1968)
Degree Days  
Heating Degree Days 0 0  
Month to date heating degree days 0 0  
Since 1 June heating degree days 0 6  
Since 1 July heating degree days 0 0  
Cooling Degree Days 11 9  
Month to date cooling degree days 148 207  
Year to date cooling degree days 701 685  
Since 1 June cooling degree days 552 582  
Growing Degree Days 26 (Base 50)    
Moisture  
Dew Point 56 °F    
Average Humidity 57    
Maximum Humidity 84    
Minimum Humidity 29    
Precipitation  
Precipitation 0.00 in 0.00 in 0.02 in (1997)
Month to date precipitation 0.00 0.02  
Year to date precipitation 2.94 8.49  
Since 1 July precipitation 0.07 0.05  
Sea Level Pressure  
Sea Level Pressure 29.81 in    
Wind  
Wind Speed 4 mph (WNW)    
Max Wind Speed 16 mph    
Max Gust Speed 20 mph    
Visibility 10 miles    
Events      
T = Trace of Precipitation, MM = Missing Value Source: NWS Daily Summary

Daily Weather History Graph

Daily Weather History Graph

Search for Another Location

Airport or City:

Trip Planner

Search our weather history database for the weather conditions in past years. The results will help you decide how hot, cold, wet, or windy it might be!

Date:

Astronomy

Aug. 23, 2013 Rise Set
Actual Time 6:20 AM PDT 7:29 PM PDT
Civil Twilight 5:54 AM PDT 7:55 PM PDT
Nautical Twilight 5:23 AM PDT 8:25 PM PDT
Astronomical Twilight 4:51 AM PDT 8:57 PM PDT
Moon 9:03 PM PDT (8/23) 9:09 AM PDT (8/23)
Length of Visible Light 14h 00m
Length of Day
13h 08m
Waning Gibbous, 91% of the Moon is Illuminated
Aug 23
Waning Gibbous
Aug 28
Last Quarter
Sep 5
New
Sep 12
First Quarter
Sep 19
Full

Hourly Weather History & Observations

Time (PDT) Temp. Heat Index Dew Point Humidity Pressure Visibility Wind Dir Wind Speed Gust Speed Precip Events Conditions
12:53 AM 66.9 °F - 57.0 °F 70% 29.86 in 10.0 mi Calm Calm - N/A   Clear
1:53 AM 66.9 °F - 55.9 °F 68% 29.85 in 10.0 mi Calm Calm - N/A   Clear
2:53 AM 66.0 °F - 55.9 °F 70% 29.84 in 10.0 mi ENE 3.5 mph - N/A   Clear
3:53 AM 64.9 °F - 57.9 °F 78% 29.84 in 10.0 mi Calm Calm - N/A   Clear
4:53 AM 64.0 °F - 57.9 °F 80% 29.84 in 10.0 mi ESE 3.5 mph - N/A   Clear
5:53 AM 64.0 °F - 57.9 °F 80% 29.84 in 10.0 mi Calm Calm - N/A   Clear
6:53 AM 63.0 °F - 57.9 °F 84% 29.84 in 9.0 mi Calm Calm - N/A   Scattered Clouds
7:53 AM 66.9 °F - 59.0 °F 76% 29.85 in 9.0 mi Calm Calm - N/A   Clear
8:53 AM 71.1 °F - 59.0 °F 66% 29.85 in 10.0 mi Calm Calm - N/A   Clear
9:53 AM 75.0 °F - 59.0 °F 57% 29.84 in 10.0 mi Calm Calm - N/A   Clear
10:53 AM 78.1 °F - 57.9 °F 50% 29.84 in 10.0 mi Variable 3.5 mph - N/A   Clear
11:53 AM 80.1 °F 80.2 °F 55.9 °F 43% 29.83 in 10.0 mi SSW 5.8 mph - N/A   Clear
12:53 PM 82.9 °F 82.0 °F 55.0 °F 38% 29.81 in 10.0 mi South 5.8 mph - N/A   Clear
1:53 PM 88.0 °F - 51.1 °F 28% 29.78 in 10.0 mi South 6.9 mph - N/A   Clear
2:53 PM 89.1 °F 86.7 °F 53.1 °F 29% 29.77 in 10.0 mi WNW 8.1 mph - N/A   Clear
3:53 PM 82.9 °F 81.8 °F 53.1 °F 36% 29.76 in 10.0 mi WNW 13.8 mph - N/A   Clear
4:53 PM 80.1 °F 80.2 °F 55.9 °F 43% 29.75 in 10.0 mi WNW 12.7 mph - N/A   Clear
5:53 PM 78.1 °F - 55.0 °F 45% 29.74 in 10.0 mi NW 12.7 mph - N/A   Clear
6:53 PM 75.9 °F - 54.0 °F 46% 29.73 in 10.0 mi WNW 10.4 mph - N/A   Clear
7:53 PM 71.1 °F - 57.0 °F 61% 29.76 in 10.0 mi WNW 6.9 mph - N/A   Clear
8:53 PM 69.1 °F - 55.0 °F 61% 29.78 in 10.0 mi NW 3.5 mph - N/A   Clear
9:53 PM 69.1 °F - 54.0 °F 58% 29.80 in 10.0 mi NNW 3.5 mph - N/A   Clear
10:53 PM 66.9 °F - 55.0 °F 66% 29.81 in 10.0 mi Calm Calm - N/A   Clear
11:53 PM 68.0 °F - 55.0 °F 63% 29.81 in 10.0 mi Calm Calm - N/A   Clear